Overview Statistics Trail Chart Weather Telemetry Raw packets
 

This is the latest recevied weather packets stored in our database for station/object KBTL-WX. If no packets are shown the sender has not sent any weather packets the latest 10 day(s).

<< 28 29 30 31 32 33 34 >>
Time Temp. Humidity Pressure Rain* Wind** Luminosity Snow
1777285830 6.67° C 86% 983.9 hPa 0 mm - - -
1777284917 6.67° C 86% 983.9 hPa 0 mm - - -
1777284040 6.67° C 86% 983.9 hPa 0 mm - - -
1777283114 6.67° C 82% 983.8 hPa 0 mm - - -
1777282230 6.67° C 84% 984 hPa 0 mm - - -
1777281317 7.22° C 84% 984 hPa 0 mm - - -
1777280433 7.22° C 84% 984 hPa 0 mm - - -
1777279517 7.22° C 79% 983.4 hPa 0 mm - - -
1777278630 7.22° C 82% 983.4 hPa 0 mm - - -
1777277718 7.22° C 82% 983.4 hPa 0 mm - - -
1777276836 7.22° C 79% 982.9 hPa 0 mm - - -
1777275916 7.22° C 77% 983.6 hPa 0 mm - - -
1777275030 7.78° C 77% 983.6 hPa 0 mm - - -
1777274113 7.78° C 77% 983.5 hPa 0 mm - - -
1777273238 7.78° C 77% 983.5 hPa 0 mm - - -
1777272317 7.78° C 77% 984 hPa 0 mm - - -
1777271431 8.33° C 80% 983.8 hPa 0 mm - - -
1777270518 8.33° C 80% 983.8 hPa 0 mm - - -
1777269637 8.33° C 80% 983.8 hPa 0 mm - - -
1777268718 8.33° C 65% 983.3 hPa 0 mm - - -
1777267830 8.33° C 65% 983.3 hPa 0 mm - - -
1777266918 8.33° C 65% 983.3 hPa 0 mm - - -
1777266038 8.33° C 65% 983.3 hPa 0 mm - - -
1777265118 8.89° C 57% 982.9 hPa 0 mm - - -
1777264231 8.89° C 63% 982.6 hPa 0 mm - - -

* Rain latest hour (hover to see other rain measurements)
** Current wind speed in m/s (hover to see current wind gust speed)